Dewpoint
35 35 35 35 35 35 35 34 34 34 34 33 32 32 32 32 31 32 32 32 32 33 33 34 34 35 35 35 36 37 38 39 39 39 39 39 40 40 40 41 41 41 41 41 41 40 39 36 34 31 30 29 29 28 28 27 28 28 28 28 28 27 27 27 27 27 27 27 27
35 35 35 35 35 35 35 34 34 34 34 34 34 33 33 32 32 32 32 33 33 34 34 35 35 35 36 37 38 39 39 39 40 40 40 40 41 41 42 42 41 41 41 40 39 37 35 32 30 29 28 28 28 28 27 27 26 26 27 27 27 27 27 27 27 27 27 27 27
35 35 35 34 34 34 34 33 34 34 34 34 34 34 34 34 34 34 34 35 35 36 36 36 36 37 38 39 39 39 39 39 40 40 40 40 40 40 40 39 38 37 35 34 33 31 30 29 28 28 27 27 27 27 27 27 27 27 27 27 26 26 27 27 27 27 27 27 27
35 34 34 34 33 33 33 33 33 34 34 35 35 35 35 35 35 35 35 36 36 36 37 38 37 38 39 39 39 38 38 38 38 38 38 38 37 37 36 35 34 33 32 31 30 30 29 29 29 28 28 27 27 26 26 26 27 27 26 26 27 27 27 27 27 27 27 27 27
34 34 34 34 34 34 34 34 34 34 34 35 34 34 34 34 33 33 33 33 33 34 34 34 34 35 35 36 35 35 35 35 34 34 34 34 34 33 33 32 32 32 32 32 32 30 30 30 30 29 29 28 27 27 26 26 26 26 26 27 27 27 27 27 28 28 28 28 28
34 34 34 35 34 34 34 34 34 34 34 34 33 32 32 32 32 31 31 30 31 31 31 31 30 31 31 32 32 33 33 34 34 34 35 35 34 33 32 32 33 33 34 33 33 32 31 31 30 30 30 30 28 27 27 27 27 26 26 27 27 28 28 28 28 28 28 28 28
33 33 33 33 33 34 34 34 34 34 34 33 32 32 32 32 31 31 31 31 31 31 30 30 30 30 30 30 31 31 32 32 33 33 32 30 31 31 31 31 31 31 31 30 31 31 31 31 30 30 30 30 29 28 28 28 28 28 27 27 28 28 28 27 27 27 27 27 27
32 32 31 31 31 31 32 32 31 31 31 31 31 31 31 31 31 31 31 31 30 30 30 30 30 29 29 29 29 29 29 29 30 30 31 30 30 30 30 29 29 29 28 28 28 29 29 30 30 29 29 29 28 29 28 27 28 28 27 27 28 28 27 26 26 26 26 27 27
30 30 30 30 30 30 30 30 30 30 30 30 30 30 30 30 30 30 30 30 29 29 29 29 29 29 29 28 27 27 27 26 28 29 30 30 29 29 28 28 27 27 27 27 27 27 27 28 28 28 28 28 27 27 26 26 26 26 26 26 27 27 27 26 26 26 26 26 26
29 29 28 29 29 29 29 29 29 29 29 29 29 29 29 29 29 29 29 29 29 28 28 28 28 28 28 27 27 27 27 27 26 27 27 28 27 26 25 25 25 25 26 26 26 26 26 26 26 26 26 26 25 25 25 25 24 23 24 25 24 24 24 25 25 25 24 23 23
28 28 28 28 29 29 29 29 29 28 28 28 28 28 29 29 28 28 28 28 28 27 27 27 27 27 26 26 26 26 27 28 27 26 25 24 24 24 24 24 24 24 23 23 23 24 24 24 24 23 23 24 23 23 22 22 21 21 21 22 21 21 21 22 22 22 22 21 21
27 27 27 27 28 28 28 28 28 28 28 28 28 28 28 28 28 28 28 27 27 27 26 26 26 26 25 25 26 26 25 24 24 24 24 23 23 23 22 22 22 21 21 20 20 21 21 21 21 21 21 22 21 21 21 21 21 21 21 21 21 21 21 21 21 21 21 21 21
27 27 27 27 27 27 27 27 27 27 27 27 27 27 27 28 28 27 27 27 27 26 25 24 25 24 23 22 21 21 21 21 21 21 21 21 21 21 21 20 20 20 20 20 21 21 21 21 21 21 21 21 21 21 21 21 21 21 21 21 21 21 21 21 21 21 21 21 21
26 26 26 27 27 27 26 26 26 26 26 26 26 26 26 27 27 27 26 26 24 23 21 21 21 21 20 19 19 19 19 19 20 20 20 20 21 21 21 21 21 21 21 22 22 22 22 22 22 21 21 21 21 21 21 21 21 21 21 22 22 22 22 22 22 22 22 22 22
26 26 26 26 26 26 26 26 26 26 26 26 26 26 26 25 26 25 23 22 21 20 20 19 20 20 21 20 20 19 19 20 20 20 21 21 21 22 22 22 22 22 23 23 23 23 23 23 22 22 22 22 22 22 22 22 22 22 22 23 23 23 23 23 23 23 23 23 23
26 26 26 26 26 26 26 26 26 26 26 26 25 24 23 22 22 22 21 21 21 21 21 21 21 21 21 22 21 21 20 20 21 21 21 22 22 22 23 23 23 23 23 23 23 23 23 23 23 23 23 23 23 23 23 23 23 23 23 23 23 24 24 24 24 24 24 24 24
26 26 26 26 26 26 26 26 26 26 25 24 23 22 22 22 23 24 24 24 24 25 25 25 24 23 23 24 23 22 21 21 21 21 22 22 23 23 23 23 24 24 24 24 24 24 24 24 24 24 24 24 24 24 24 24 24 24 24 24 24 24 24 25 25 25 25 25 25
26 26 26 26 26 26 26 26 25 24 23 22 23 24 25 26 27 27 28 28 28 28 28 28 27 26 25 24 23 22 22 21 22 23 23 23 23 24 24 24 24 24 25 25 25 25 25 25 25 25 25 25 24 24 24 25 24 24 25 25 25 25 25 25 25 25 25 25 25
26 26 26 26 26 26 25 24 23 23 23 24 26 28 29 30 30 31 31 31 30 30 30 30 29 27 26 24 22 23 23 23 23 24 24 24 24 24 25 25 25 25 25 25 25 25 25 25 25 25 25 25 25 25 25 25 25 25 25 25 25 25 25 25 25 26 26 25 25
26 26 26 26 25 24 24 23 24 25 26 29 30 31 32 33 33 33 33 33 32 32 31 30 30 28 26 24 23 23 24 25 24 24 25 25 25 25 25 25 25 25 25 25 25 25 25 25 25 24 24 24 24 24 24 24 24 25 25 25 25 25 26 26 26 25 25 25 25
25 25 25 25 24 24 25 26 28 30 31 32 33 34 34 34 34 34 34 34 33 33 32 30 29 27 26 24 24 24 24 26 25 25 25 25 25 25 25 25 25 25 25 25 25 24 24 24 24 24 24 24 24 24 24 24 24 25 25 25 25 25 25 25 25 24 24 24 24
25 26 26 27 27 28 30 31 32 33 34 34 35 35 35 35 35 34 34 34 34 33 31 30 28 27 26 25 24 24 25 26 26 26 26 26 25 25 25 25 25 25 24 24 24 24 24 24 24 24 24 24 24 24 24 24 24 25 25 25 24 24 24 23 23 23 23 24 24
29 30 30 31 31 32 33 34 34 35 35 35 35 35 35 35 35 35 35 34 33 31 30 28 27 26 26 25 25 25 25 26 26 26 26 25 25 25 25 25 25 24 24 24 24 24 24 24 24 24 24 24 24 24 24 24 24 24 24 23 22 22 22 23 23 23 24 24 25
31 32 33 33 33 34 34 35 35 35 35 35 35 35 35 35 35 35 34 33 31 29 27 26 25 25 25 25 25 25 26 26 26 26 25 25 25 25 24 24 24 24 24 24 24 25 25 25 24 24 24 24 24 24 24 24 23 23 22 22 22 22 22 23 23 23 24 24 24
33 33 34 34 34 34 35 35 35 35 35 35 35 35 35 35 35 34 32 30 28 26 24 23 24 25 25 26 26 26 26 26 26 25 25 25 24 24 24 24 24 24 24 24 26 29 29 28 27 26 25 25 24 24 24 23 23 22 23 23 23 23 23 23 23 24 24 24 24
33 33 34 34 34 34 34 34 34 34 34 34 34 34 34 34 33 32 30 27 25 24 23 24 24 26 26 26 26 26 26 26 25 25 25 25 24 24 24 24 24 24 25 26 28 30 30 31 30 29 27 25 24 24 23 22 22 22 22 23 23 23 23 24 24 23 23 23 23
32 32 32 33 33 33 33 33 33 33 33 33 33 33 33 32 30 28 26 24 23 24 24 25 25 26 27 26 26 26 26 26 26 25 25 25 24 24 24 24 24 24 25 26 28 30 30 30 30 30 28 26 24 22 22 21 22 22 22 22 23 23 23 23 23 23 22 22 22
31 31 31 32 32 32 32 32 32 32 32 32 32 32 31 30 27 25 24 24 25 25 26 26 26 26 27 27 26 26 26 26 26 26 26 25 25 24 24 24 23 23 24 27 28 29 29 29 30 30 30 28 23 22 22 22 22 22 22 23 23 23 23 23 22 22 22 22 22
30 30 30 30 31 31 31 30 30 31 31 31 31 31 29 26 25 24 25 26 26 26 27 27 27 27 27 28 28 27 28 28 28 27 27 26 26 25 24 24 22 23 24 27 27 27 28 29 30 32 33 30 26 23 21 21 22 22 22 23 23 23 22 22 22 22 22 23 23
30 30 30 30 30 30 30 30 30 30 30 30 29 27 26 25 25 26 26 26 27 27 28 28 28 28 28 29 29 29 30 30 30 30 29 28 26 24 22 22 21 21 23 26 26 27 29 30 30 32 32 31 28 25 23 22 22 22 23 23 23 23 23 23 23 23 23 24 24
29 29 29 29 29 29 29 29 28 27 27 26 25 25 25 26 26 26 26 26 27 27 28 28 28 29 29 30 30 31 31 31 31 30 29 26 24 22 21 20 19 20 22 26 27 28 30 30 30 30 30 30 28 26 23 22 22 22 23 23 23 23 23 23 23 23 24 24 24
29 29 28 28 28 28 27 26 24 24 24 24 25 26 26 26 26 26 26 26 27 28 28 29 30 30 31 31 32 32 32 31 30 28 26 23 21 20 19 18 18 19 22 26 28 29 30 29 28 28 28 29 28 25 23 22 21 22 22 22 22 22 23 23 24 24 24 24 25
28 28 28 28 27 26 25 24 24 24 25 26 26 26 27 27 27 27 27 28 29 30 30 31 32 33 33 33 32 32 30 29 26 24 21 19 18 18 18 18 18 20 24 27 29 29 28 28 27 27 28 28 27 25 22 21 21 22 22 22 23 23 23 23 24 24 25 25 25
26 26 26 26 26 25 24 24 25 26 26 27 28 28 28 28 28 29 29 30 31 33 33 34 34 34 33 32 31 30 27 24 22 20 18 17 17 17 17 17 17 21 26 27 28 28 27 27 27 26 27 27 26 24 21 21 21 22 22 23 23 23 24 24 24 25 25 25 26
25 25 25 25 25 24 24 24 25 26 28 29 30 30 30 30 31 32 33 34 34 35 35 34 34 32 31 29 26 24 22 20 19 18 17 17 16 16 17 17 17 21 26 27 27 27 26 26 26 26 26 26 24 22 21 21 21 22 22 23 23 24 24 25 25 25 26 27 28
24 25 25 24 25 25 25 26 27 29 30 30 31 32 32 33 34 35 35 35 35 34 33 32 30 28 25 22 21 19 19 18 18 18 17 17 16 16 16 16 17 20 25 26 26 26 26 26 26 25 25 25 23 22 21 21 22 22 22 23 24 24 24 25 26 27 28 29 28
24 24 25 25 26 27 28 29 30 32 32 32 33 33 34 35 35 35 35 34 33 31 30 27 24 22 21 19 19 18 18 18 17 17 17 16 15 15 15 16 16 18 22 25 26 26 26 25 25 25 24 24 22 21 21 22 23 23 23 23 24 24 25 27 28 28 28 27 26
25 26 27 28 29 30 31 32 33 33 33 33 34 34 34 34 34 33 32 30 29 27 24 21 20 19 19 19 18 18 17 17 17 17 16 16 15 15 15 15 15 17 20 24 25 25 25 24 24 24 24 22 21 21 21 22 23 23 23 23 23 24 26 27 26 26 25 24 25
28 30 31 32 32 33 33 34 34 34 34 34 34 34 33 33 31 30 29 26 24 22 21 19 19 18 18 18 17 17 16 16 16 16 16 15 15 16 16 15 15 16 19 23 25 25 24 24 24 24 23 23 21 21 21 22 22 22 22 22 22 23 23 25 24 24 23 22 25
32 33 33 34 34 34 34 34 34 33 33 33 33 32 31 30 28 27 25 20 19 19 19 18 18 18 17 17 16 16 15 15 14 14 15 15 15 18 20 16 15 15 18 22 24 24 24 24 23 23 23 23 21 21 21 21 21 21 21 21 22 22 22 23 23 23 23 21 23
34 34 34 34 34 34 34 33 33 32 32 32 31 30 28 26 23 22 21 18 18 17 18 18 17 17 16 16 15 14 13 13 13 13 13 14 14 18 20 15 14 14 15 19 23 24 24 23 23 23 23 23 22 21 21 21 21 21 21 22 22 23 23 24 24 23 22 21 21